Location: Poughquag
(41.6090°N, 73.6820°W)
Time: 18:15:46
(UTC-04:00)

MOZHAYETS 4 - Pass Details

Date: 15 August 2024
Orbit: 650 x 668 km, 98.3° (Epoch: 15 September)

Event Time Altitude Azimuth Distance (km) Brightness Sun altitude
Exits shadow 04:25:27 - 166° (SSE) 2,916 10.8 -17.0°
Reaches altitude 10° 04:27:28 10° 167° (SSE) 2,089 10.0 -16.7°
Maximum altitude 04:32:02 86° 252° (WSW) 677 7.6 -16.0°
Drops below altitude 10° 04:36:40 10° 346° (NNW) 2,106 10.5 -15.3°
Sets 04:38:54 0° 347° (NNW) 3,024 11.4 -15.0°
